Date String (YYYY-MM-DD hh:mm:ss) UTC,Instrument flags,Ambient pressure (hPa),Sample flow (lpm),Bypass flow (lpm),Sample temperature (°C),Ambient temperature (°C),ASC tube jacket temperature (°C),LED temperature (°C),Box temperature (°C),Sample RH (%),Span deviation,Mass concentration (μg/m³),Mass concentration (μg/m³),Mass concentration (μg/m³)
DateTimeUTC,F1_M11,P_M11,Q1_M11,Q2_M11,T1_M11,T2_M11,T3_M11,T4_M11,T5_M11,U1_M11,ZSPAN_M11,X0_M11,X2_M11,X1_M11
2021-09-09 23:00:00,,0829.2,5.01,0.00,28.8,26.9,00.0,37.9,30.6,11.8,-000.6,0038.27,0020.19,0018.62
2021-09-09 23:01:00,,0829.0,4.98,0.00,28.9,27.3,00.0,37.9,30.7,11.0,-000.7,0038.08,0020.28,0018.62
2021-09-09 23:02:00,,0828.8,5.00,0.00,29.0,27.7,00.0,37.9,30.9,10.7,-000.9,0038.40,0020.31,0018.63
2021-09-09 23:03:00,,0828.9,5.01,0.00,29.0,28.0,00.0,37.9,31.0,10.9,-000.8,0037.13,0020.29,0018.65
2021-09-09 23:04:00,,0828.8,5.00,0.00,29.1,27.4,00.0,37.9,30.8,10.9,-000.3,0036.27,0020.25,0018.66
2021-09-09 23:05:00,,0829.0,5.00,0.00,28.9,25.9,00.0,37.9,30.4,10.9,0000.2,0035.52,0020.19,0018.60
2021-09-09 23:06:00,,0829.0,4.98,0.00,28.9,25.9,00.0,37.9,30.3,10.9,0000.1,0035.13,0020.18,0018.59
2021-09-09 23:07:00,,0829.2,5.00,0.00,28.8,26.4,00.0,37.9,30.5,11.1,-000.3,0035.22,0020.14,0018.60
2021-09-09 23:08:00,,0828.8,5.01,0.00,28.8,26.8,00.0,37.9,30.6,11.0,-000.3,0034.55,0020.12,0018.60
2021-09-09 23:09:00,,0828.9,5.00,0.00,28.9,27.2,00.0,37.9,30.7,10.9,-000.1,0034.45,0020.09,0018.60
2021-09-09 23:10:00,,0828.8,5.00,0.00,29.0,27.5,00.0,37.9,30.8,10.9,0000.1,0032.96,0020.06,0018.59
2021-09-09 23:11:00,,0828.8,5.00,0.00,29.0,27.9,00.0,37.9,31.0,11.0,-000.1,0031.76,0020.04,0018.58
2021-09-09 23:12:00,,0828.9,5.00,0.00,29.1,27.3,00.0,37.9,30.8,11.0,-001.1,0031.64,0019.95,0018.58
2021-09-09 23:13:00,,0828.9,5.00,0.00,28.9,25.9,00.0,37.9,30.4,10.9,-000.3,0031.47,0019.98,0018.59
2021-09-09 23:14:00,,0829.0,5.00,0.00,28.9,25.9,00.0,37.9,30.4,11.0,-000.2,0032.23,0019.95,0018.58
2021-09-09 23:15:00,,0829.0,4.99,0.00,28.8,26.3,00.0,37.9,30.5,11.1,-000.2,0032.53,0019.96,0018.58
2021-09-09 23:16:00,,0829.3,5.01,0.00,28.8,26.7,00.0,37.9,30.6,10.9,-000.5,0033.76,0020.04,0018.62
2021-09-09 23:17:00,,0828.9,5.00,0.00,28.9,27.1,00.0,37.9,30.7,10.8,-000.4,0033.26,0020.04,0018.63
2021-09-09 23:18:00,,0828.9,5.00,0.00,29.0,27.5,00.0,37.9,30.8,10.9,-000.3,0033.33,0020.04,0018.62
2021-09-09 23:19:00,,0828.9,5.00,0.00,29.0,27.8,00.0,37.9,30.9,11.1,-000.1,0033.38,0020.05,0018.63
2021-09-09 23:20:00,,0828.8,4.99,0.00,29.1,27.9,00.0,38.0,31.0,11.3,0000.1,0033.02,0020.09,0018.62
2021-09-09 23:21:00,,0828.8,5.00,0.00,29.1,26.6,00.0,38.0,30.7,11.3,0000.3,0033.32,0020.11,0018.60
2021-09-09 23:22:00,,0828.9,5.01,0.00,28.9,25.7,00.0,37.9,30.4,11.5,0000.4,0033.48,0020.16,0018.62
2021-09-09 23:23:00,,0829.0,4.98,0.00,28.9,26.1,00.0,37.9,30.4,11.5,0001.3,0033.41,0020.14,0018.61
2021-09-09 23:24:00,,0828.8,5.00,0.00,28.9,26.5,00.0,37.9,30.5,11.2,0001.4,0033.95,0020.09,0018.57
2021-09-09 23:25:00,,0828.9,5.00,0.00,28.9,27.0,00.0,37.9,30.6,11.2,0001.4,0033.44,0020.08,0018.56
2021-09-09 23:26:00,,0828.9,5.00,0.00,28.9,27.4,00.0,37.9,30.8,11.0,0001.7,0033.28,0020.09,0018.53
2021-09-09 23:27:00,,0828.8,5.00,0.00,29.0,27.8,00.0,37.9,30.9,11.3,0001.5,0032.97,0020.07,0018.50
2021-09-09 23:28:00,,0828.8,5.00,0.00,29.1,27.9,00.0,38.0,31.0,11.2,0001.7,0032.83,0020.07,0018.47
2021-09-09 23:29:00,,0828.8,5.01,0.00,29.0,26.5,00.0,38.0,30.6,11.5,0001.6,0033.62,0020.18,0018.48
2021-09-09 23:30:00,,0829.1,4.99,0.00,28.9,25.6,00.0,37.9,30.4,11.3,0001.4,0034.78,0020.26,0018.46
2021-09-09 23:31:00,,0828.8,5.01,0.00,28.9,26.0,00.0,37.9,30.4,11.6,0000.8,0035.49,0020.25,0018.46
2021-09-09 23:32:00,,0828.9,4.99,0.00,28.8,26.5,00.0,37.9,30.5,11.4,0000.4,0036.38,0020.29,0018.46
2021-09-09 23:33:00,,0828.8,5.02,0.00,28.9,27.0,00.0,37.9,30.6,11.7,0000.4,0036.47,0020.28,0018.45
2021-09-09 23:34:00,,0828.8,5.00,0.00,28.9,27.4,00.0,37.9,30.8,11.5,0000.2,0036.28,0020.26,0018.43
2021-09-09 23:35:00,,0828.8,5.01,0.00,29.0,27.7,00.0,37.9,30.9,11.5,0000.4,0035.35,0020.31,0018.43
2021-09-09 23:36:00,,0828.9,4.99,0.00,29.1,28.0,00.0,38.0,31.0,11.8,0000.4,0035.07,0020.35,0018.46
2021-09-09 23:37:00,,0828.8,5.00,0.00,29.1,27.5,00.0,38.0,30.9,11.5,0000.1,0034.73,0020.35,0018.48
2021-09-09 23:38:00,,0829.2,5.02,0.00,29.0,25.9,00.0,38.0,30.4,11.7,0000.4,0034.20,0020.31,0018.51
2021-09-09 23:39:00,,0829.3,4.99,0.00,28.9,25.8,00.0,38.0,30.4,11.6,0000.5,0034.02,0020.29,0018.53
2021-09-09 23:40:00,,0829.3,4.99,0.00,28.9,26.3,00.0,38.0,30.5,11.8,0000.6,0033.57,0020.22,0018.53
2021-09-09 23:41:00,,0829.0,5.00,0.00,28.9,26.7,00.0,37.9,30.6,12.1,0000.9,0033.29,0020.18,0018.52
2021-09-09 23:42:00,,0828.9,5.01,0.00,28.9,27.2,00.0,37.9,30.7,11.6,0001.3,0032.83,0020.14,0018.50
2021-09-09 23:43:00,,0828.8,5.01,0.00,29.0,27.5,00.0,37.9,30.8,11.9,0001.7,0032.02,0020.09,0018.48
2021-09-09 23:44:00,,0828.9,4.99,0.00,29.1,27.9,00.0,38.0,31.0,11.7,0001.4,0031.42,0020.08,0018.45
2021-09-09 23:45:00,,0828.8,4.99,0.00,29.1,27.4,00.0,38.0,30.8,12.0,0001.1,0032.61,0020.10,0018.45
2021-09-09 23:46:00,,0828.9,5.01,0.00,29.0,25.8,00.0,38.0,30.4,12.4,0000.9,0033.36,0020.11,0018.46
2021-09-09 23:47:00,,0828.8,4.99,0.00,28.8,25.7,00.0,38.0,30.3,12.8,0000.7,0035.06,0020.12,0018.39
2021-09-09 23:48:00,,0828.8,5.00,0.00,28.8,26.2,00.0,37.9,30.4,12.9,0000.6,0037.26,0020.12,0018.38
2021-09-09 23:49:00,,0828.9,5.00,0.00,28.8,26.6,00.0,37.9,30.5,13.0,0000.3,0037.76,0020.10,0018.34
2021-09-09 23:50:00,,0829.2,4.99,0.00,28.9,27.0,00.0,37.9,30.7,12.8,0000.2,0038.59,0020.13,0018.32
2021-09-09 23:51:00,,0828.9,4.99,0.00,28.9,27.5,00.0,37.9,30.8,12.9,0000.5,0038.19,0020.09,0018.30
2021-09-09 23:52:00,,0828.8,5.01,0.00,29.0,27.6,00.0,37.9,30.8,13.6,0000.5,0037.68,0020.04,0018.28
2021-09-09 23:53:00,,0828.8,5.00,0.00,29.0,26.3,00.0,37.9,30.5,13.7,-000.3,0037.81,0020.11,0018.29
2021-09-09 23:54:00,,0829.2,5.01,0.00,28.8,25.4,00.0,37.9,30.2,14.2,-001.2,0038.10,0020.17,0018.31
2021-09-09 23:55:00,,0829.4,5.00,0.00,28.8,25.8,00.0,37.9,30.3,14.1,-001.7,0038.39,0020.17,0018.31
2021-09-09 23:56:00,,0829.3,4.99,0.00,28.7,26.3,00.0,37.9,30.4,14.0,-001.7,0037.12,0020.13,0018.30
2021-09-09 23:57:00,,0829.3,5.01,0.00,28.8,26.7,00.0,37.9,30.5,14.0,-002.0,0036.29,0020.09,0018.31
2021-09-09 23:58:00,,0829.3,5.00,0.00,28.8,27.2,00.0,37.9,30.6,14.2,-002.0,0035.72,0020.03,0018.32
2021-09-09 23:59:00,,0829.3,5.00,0.00,28.9,27.6,00.0,37.9,30.8,14.0,-001.5,0033.80,0020.00,0018.29
